Printer-friendly version

IAU Minor Planet Center

Minor Planet Center

MPEC 2006-U52 : 2006 UB64

The following Minor Planet Electronic Circular may be linked-to from your own Web pages, but must not otherwise be redistributed electronically.


Read MPEC 2006-U51 Read MPEC 2006-U53


M.P.E.C. 2006-U52                                Issued 2006 Oct. 24, 15:51 UT

     The Minor Planet Electronic Circulars contain information on unusual
         minor planets and routine data on comets.  They are published
   on behalf of Commission 20 of the International Astronomical Union by the
          Minor Planet Center, Smithsonian Astrophysical Observatory,
                          Cambridge, MA 02138, U.S.A.

             Prepared using the Tamkin Foundation Computer Network

                              MPC@CFA.HARVARD.EDU
          URL http://cfa-www.harvard.edu/iau/mpc.html  ISSN 1523-6714

                                   2006 UB64

Observations:
     K06U64B* C2006 10 22.68273 03 50 10.57 -27 01 33.1          20.1 V EU052E12
     K06U64B  C2006 10 22.69472 03 50 12.55 -27 02 37.5          19.7 V EU052E12
     K06U64B  C2006 10 22.71862 03 50 16.47 -27 04 43.2          19.4 V EU052E12
     K06U64B  C2006 10 22.72968 03 50 18.20 -27 05 40.9          18.8 V EU052E12
     K06U64B  C2006 10 22.73023 03 50 18.38 -27 05 45.4          19.4 V EU052E12
     K06U64B  C2006 10 22.73076 03 50 18.49 -27 05 48.1          19.9 V EU052E12
     K06U64B  C2006 10 22.73129 03 50 18.56 -27 05 49.8          19.2 V EU052E12
     K06U64B  C2006 10 22.73184 03 50 18.63 -27 05 53.7          20.1 V EU052E12
     K06U64B  C2006 10 23.61859 03 53 04.86 -28 26 33.0          19.2 R EU052E12
     K06U64B  C2006 10 23.75358 03 53 29.23 -28 39 09.8          19.7 R EU052E12
     K06U64B  C2006 10 24.42969 03 55 44.70 -29 44 31.0          19.8 R EU052734
     K06U64B  C2006 10 24.43353 03 55 45.43 -29 44 52.7          18.6 R EU052734
     K06U64B  C2006 10 24.43738 03 55 46.22 -29 45 14.9          19.8 R EU052734
     K06U64B  C2006 10 24.50721 03 56 03.65 -29 51 29.7          19.2 R EU052E12
     K06U64B  C2006 10 24.51247 03 56 04.68 -29 52 00.8          19.3 R EU052E12

Observer details:
734 Farpoint Observatory.  Observer D. Tibbets.  Measurer G. Hug.  0.7-m
    reflector + CCD.
E12 Siding Spring Survey.  Observer G. J. Garradd.  Measurers E. C. Beshore,
    E. J. Christensen, G. J. Garradd, A. R. Gibbs, A. D. Grauer, R. E. Hill,
    R. A. Kowalski, S. M. Larson, R. H. McNaught.  0.5-m Uppsala Schmidt + CCD.

Orbital elements:
2006 UB64                                                Earth MOID = 0.1631 AU
Epoch 2006 Sept. 22.0 TT = JDT 2454000.5                MPC
M 330.54234              (2000.0)            P               Q
n   0.31530516     Peri.  358.33996     -0.63713268     -0.76054367
a   2.1378734      Node   131.21585     +0.70905477     -0.64196614
e   0.7019060      Incl.    9.56850     +0.30216433     -0.09722547
P   3.13           H   20.6           G   0.15           U   9
Residuals in seconds of arc
061022 E12  1.3+  0.4+    061022 E12  0.1+  0.5-    061024 734  0.1+  0.4-
061022 E12  1.1+  0.5-    061022 E12  0.2-  0.6+    061024 734  0.1-  0.3+
061022 E12  0.2+  0.2+    061022 E12  0.5-  0.4-    061024 734  0.3+  0.5+
061022 E12  1.4-  1.0+    061023 E12  0.4-  0.1-    061024 E12  0.2+  0.2-
061022 E12  0.2-  0.6-    061023 E12  0.3-  0.3-    061024 E12  0.0   0.1+

Ephemeris:
2006 UB64                a,e,i = 2.14, 0.70, 10                  q = 0.6373
Date    TT    R. A. (2000) Decl.     Delta      r     Elong.  Phase     V
2006 10 22    03 48.19   -26 02.3    0.280    1.203   132.5    37.6    19.8
2006 10 24    03 54.31   -29 02.5    0.261    1.180   129.9    40.3    19.6
2006 10 26    04 01.54   -32 24.5    0.244    1.157   126.8    43.5    19.5
2006 10 28    04 10.30   -36 11.0    0.227    1.134   123.0    47.3    19.4
2006 10 30    04 21.20   -40 24.0    0.212    1.110   118.7    51.7    19.4
2006 11 01    04 35.19   -45 04.4    0.198    1.087   113.6    56.8    19.3
2006 11 03    04 53.83   -50 09.9    0.186    1.064   107.8    62.6    19.3
2006 11 05    05 19.66   -55 32.6    0.177    1.041   101.3    69.1    19.4
2006 11 07    05 56.85   -60 54.0    0.170    1.018    94.2    76.2    19.4
2006 11 09    06 51.49   -65 37.6    0.165    0.995    86.6    83.8    19.6
2006 11 11    08 08.04   -68 43.8    0.164    0.972    78.8    91.7    19.9
2006 11 13    09 37.82   -69 11.2    0.165    0.949    71.0    99.5    20.2
2006 11 15    10 58.11   -66 56.1    0.170    0.926    63.6   106.9    20.6
2006 11 17    11 56.78   -62 58.3    0.177    0.904    56.8   113.8    21.0
2006 11 19    12 36.93   -58 20.0    0.187    0.882    50.7   119.8    21.5
2006 11 21    13 04.83   -53 38.5    0.199    0.860    45.5   124.9    22.0

Kyle E. Smalley              (C) Copyright 2006 MPC           M.P.E.C. 2006-U52

Read MPEC 2006-U51 Read MPEC 2006-U53


Our Web policy. Index to the CBAT/MPC/ICQ pages.


Valid HTML 4.01!